Location: Itzlishofen
(48.2690°N, 10.6742°E)
Time: 12:48:56
(UTC+00:00)

Daily predictions for brighter satellites

Satellite Brightness Start Highest point End
(mag) Time Altitude Azimuth Time Altitude Azimuth Time Altitude Azimuth
ATLAS 3B R/B 3.2 19:23:07 10° NW 19:30:59 79° SW 19:38:44 10° SSE
Cosmos 1943 Rocket 3.5 19:31:38 10° NW 19:36:48 38° WSW 19:41:55 10° S
BREEZE-M DEB (TANK) 3.6 19:35:49 10° SSW 19:38:26 37° SE 19:45:17 10° ENE
Okean O Rocket 2.5 19:35:56 10° S 19:40:15 52° W 19:44:36 10° NNW
Kosmos-1783 4.1 19:42:17 10° WSW 19:43:32 25° NW 19:44:53 10° NNE
Cosmos 1464 Rocket 4.5 19:38:01 10° NNW 19:44:16 66° W 19:50:24 10° S
Cosmos 1782 3.9 19:40:47 10° SSW 19:44:26 46° WNW 19:48:09 10° N
Cosmos-2242 4.3 19:41:23 10° SSW 19:45:25 43° WNW 19:49:30 10° N
ISS -3.3 19:44:27 10° WNW 19:47:45 58° NNE 19:51:03 10° E
USA 281 4.1 19:42:49 10° ESE 19:48:47 38° NE 19:54:45 10° NNW
Cosmos 44 3.5 19:46:40 10° NW 19:51:31 66° WSW 19:56:01 10° SSE
Cosmos 1726 3.5 19:49:35 10° NNE 19:51:55 19° ENE 19:54:10 10° ESE
USA 234 4.5 19:46:30 10° ENE 19:52:38 44° N 19:58:45 10° WNW
FALCON 9 R/B 3.9 19:52:42 10° SW 19:57:20 29° SSE 20:08:58 10° ESE
SL-8 R/B 4.2 19:54:24 10° SW 19:58:46 37° SSE 20:03:09 10° E
USA 290 3.9 19:56:06 10° NW 19:58:59 30° WSW 20:01:49 10° SSW
Cosmos 2084 3.4 19:56:36 10° NW 20:00:19 61° SW 20:03:49 11° SSE
ERS-1 Rocket 3.2 19:55:57 10° SSE 20:00:53 60° ENE 20:05:52 10° N
ATLAS 2AS CENTAUR R/B 4.0 19:55:33 10° WSW 20:02:36 48° NW 20:09:24 10° NE
Cosmos 1766 Rocket 3.6 19:58:36 10° N 20:03:04 77° E 20:07:31 10° SSE
Cosmos 494 Rocket 4.3 19:58:16 10° S 20:03:05 45° ESE 20:07:58 10° NNE
IRS-1C Rocket 4.1 19:59:42 10° SSE 20:04:58 88° ENE 20:10:16 10° NNW
USA 276 1.7 20:03:35 10° W 20:05:42 44° SSW 20:07:07 17° SE
Cosmos 2297 3.9 20:00:51 10° NNW 20:06:36 76° WSW 20:12:17 10° SSE
Landsat 4 3.7 20:08:36 13° SSE 20:11:34 56° ENE 20:15:01 10° N
Cosmos 2279 Rocket 4.3 20:07:00 10° N 20:13:04 54° ENE 20:18:32 13° SSE
MetOp-B 4.4 20:09:33 10° S 20:14:54 71° WSW 20:20:16 10° NNW
Meteor 1-14 Rocket 4.4 20:09:16 10° N 20:15:08 77° ENE 20:20:53 11° SSE
USA 245 1.9 20:14:18 19° SSE 20:15:44 66° ENE 20:18:00 10° N
Meteor 1-11 Rocket 4.4 20:10:24 10° N 20:15:45 42° ENE 20:20:19 14° SE
USA 306 3.4 20:12:32 10° WNW 20:16:13 48° NNE 20:20:00 10° E
Cosmos 2221 2.8 20:13:24 10° SSW 20:17:42 72° W 20:22:03 10° N
Cosmos 1634 Rocket 4.0 20:12:01 10° N 20:18:21 85° E 20:24:36 10° S
Okean-O 3.9 20:15:42 10° SSW 20:19:49 38° W 20:23:58 10° NNW
MOS 1 Rocket 3.8 20:18:24 14° SE 20:22:39 56° ENE 20:27:52 10° N
Lacrosse 5 3.6 20:20:29 10° WNW 20:24:30 24° SW 20:28:30 10° S
Cosmos 1331 Rocket 4.4 20:19:21 10° NNW 20:24:30 54° ENE 20:28:30 16° SE
CZ-4C R/B 4.3 20:21:40 10° N 20:25:17 48° WNW 20:29:03 10° SW
Lacrosse 4 Rocket 3.9 20:24:22 10° N 20:26:03 12° NNE 20:27:45 10° ENE
Landsat 5 4.3 20:23:23 10° NE 20:26:39 27° E 20:28:30 18° SE
Lacrosse 5 rocket 3.0 20:24:42 10° W 20:28:42 37° NNW 20:32:39 10° NE
Cosmos 1110 Rocket 4.2 20:24:07 10° NNW 20:29:25 64° ENE 20:33:27 17° SE
USA 229 DEB 4.1 20:24:43 10° NW 20:32:08 76° SW 20:38:48 16° SSE
Cosmos 1408 Rocket 3.9 20:27:48 10° N 20:32:09 51° ENE 20:35:10 19° SSE
USA 229 4.1 20:24:49 10° NW 20:32:14 76° SW 20:38:55 16° SSE
GEOS 3 Rocket 3.9 20:27:52 10° NE 20:32:49 44° ESE 20:37:41 10° SSW
SL-16 R/B 3.1 20:27:31 10° SW 20:33:03 53° NW 20:38:39 10° NNE
SPOT 3 Rocket 3.5 20:30:08 15° SSE 20:34:23 79° ENE 20:39:33 10° NNW
Cosmos 1603 4.2 20:30:40 11° S 20:35:44 40° ESE 20:41:01 10° NE
Meteor 2-6 Rocket 4.2 20:30:23 10° S 20:36:00 87° W 20:41:31 10° N
Cosmos 921 Rocket 3.5 20:31:42 10° SSW 20:36:08 64° WNW 20:40:37 10° NNE
Cosmos 2263 4.3 20:31:20 10° NNW 20:37:02 77° WSW 20:41:33 17° SSE
Terra 2.0 20:36:47 14° S 20:40:50 72° WSW 20:45:34 10° NNW
Cosmos 2369 Rocket 2.7 20:37:21 10° NW 20:42:46 52° WSW 20:47:21 14° S
Spot 2 Rocket 3.6 20:39:36 15° S 20:43:48 77° WSW 20:48:52 10° NNW
Okean 1 3.7 20:42:42 22° SSE 20:44:47 43° E 20:48:29 10° NNE
Cosmos 1536 2.7 20:43:50 10° N 20:47:44 73° E 20:50:03 23° SSE
SPOT 5 4.2 20:45:31 10° SSW 20:49:37 31° W 20:53:37 10° NNW
Cosmos 2180 Rocket 4.4 20:49:24 10° N 20:55:38 80° E 21:00:07 20° SSE
Meteor 2-10 4.2 20:52:24 10° N 20:57:58 67° ENE 21:01:23 23° SSE
Cosmos 1340 2.9 21:01:13 10° N 21:04:30 45° ENE 21:05:36 32° SE
MetOp-A 3.7 21:02:25 25° SSE 21:05:04 83° ENE 21:09:57 10° NNW
Meteor 1-27 Rocket 3.7 21:01:47 20° S 21:05:36 63° E 21:11:05 10° NNE
Cosmos 1500 Rocket 3.4 21:01:27 10° N 21:05:47 83° E 21:08:06 27° SSE
Cosmos 1151 Rocket 3.6 21:04:39 27° SE 21:06:24 39° E 21:10:28 10° NNE
Ariane Rocket 3.6 21:02:36 15° S 21:06:34 51° W 21:11:31 10° NNW
Cosmos 1943 3.4 21:07:25 10° SSW 21:13:06 75° WNW 21:18:48 10° NNE
Cosmos 1805 Rocket 3.5 21:11:06 10° N 21:15:31 86° E 21:17:42 29° S
Cosmos 1452 Rocket 4.0 21:10:38 10° NNW 21:15:45 55° WSW 21:18:58 22° S
USA 59 Rocket 0.6 21:18:08 10° NNW 21:21:49 50° NE 21:24:44 22° ESE
NOSS 2-1 (E) 4.1 21:19:32 10° NNW 21:23:14 51° NE 21:26:06 22° ESE
Cosmos 1666 Rocket 4.4 21:19:45 10° N 21:23:48 37° ENE 21:25:23 27° ESE
ISS -3.2 21:21:11 10° WNW 21:24:20 39° SSW 21:24:35 38° SSW
Cosmos 1633 Rocket 4.1 21:20:35 10° N 21:24:36 33° ENE 21:26:15 25° ESE
Spot 1 4.3 21:20:43 10° N 21:24:45 63° WNW 21:27:51 17° SSW
Cosmos 1726 3.7 21:22:32 10° NW 21:25:05 23° W 21:26:41 16° SW
Meteor 2-4 Rocket 4.3 21:26:00 27° SSE 21:28:47 46° E 21:34:25 10° NNE
Meteor 2-9 Rocket 4.5 21:23:10 10° NNW 21:28:58 70° W 21:32:35 24° S
Cosmos 1805 3.2 21:28:57 10° N 21:32:39 64° E 21:33:38 44° SE
USA 281 3.6 21:28:49 22° S 21:33:03 55° WSW 21:39:33 10° NNW
USA 234 4.3 21:28:46 10° E 21:34:55 45° N 21:41:04 10° WNW
NOSS 2-1 (D) 3.7 21:31:40 10° NW 21:35:26 67° NE 21:37:46 29° ESE
Cosmos 1697 Rocket 4.4 21:33:08 10° N 21:37:47 25° NE 21:42:21 10° E
Cosmos 1428 Rocket 4.4 21:34:57 27° S 21:38:26 71° E 21:44:31 10° NNE
SL-8 R/B 3.5 21:36:09 10° WSW 21:40:54 84° S 21:45:42 10° E
Cosmos 1340 Rocket 3.0 21:40:29 30° SSW 21:42:21 70° WNW 21:46:22 10° N
Cosmos 1092 Rocket 4.1 21:39:35 29° SSE 21:42:48 60° E 21:49:00 10° NNE
ARIANE 5 R/B 2.5 21:44:23 39° SSE 21:45:55 74° ENE 21:50:14 10° N
Sich 1 3.8 21:42:31 10° NNW 21:46:41 45° W 21:48:43 26° SSW
USA 306 2.8 21:46:15 10° WNW 21:50:01 50° SW 21:50:25 48° SSW
Cosmos 2195 Rocket 4.4 21:53:23 28° S 21:56:47 87° E 22:02:56 10° N
Cosmos 614 Rocket 3.9 21:57:03 33° S 21:59:26 77° ESE 22:04:40 10° NNE
Nadezhda 4 Rocket 4.4 21:56:05 18° SSW 22:00:42 59° WNW 22:06:53 10° N
Cosmos 1302 Rocket 4.4 21:57:46 10° NNW 22:02:48 51° WSW 22:04:51 32° SSW
H-2A R/B 2.5 22:02:26 47° SE 22:03:32 72° ENE 22:07:46 10° N
Lacrosse 4 Rocket 1.6 22:01:08 10° NNW 22:05:10 60° NE 22:06:23 41° ESE
IRIDIUM 104 4.4 22:01:17 10° N 22:06:30 71° W 22:08:47 34° SSW
Cosmos 1992 Rocket 3.9 22:02:10 10° NNW 22:07:26 89° WSW 22:09:23 40° SSE
Cosmos 220 Rocket 3.9 22:06:19 46° S 22:07:31 77° ESE 22:11:51 10° NNE
Lacrosse 5 rocket 3.8 22:04:26 10° NW 22:07:57 24° N 22:11:22 10° NE
NOSS 2-1 (C) 3.6 22:07:26 10° NW 22:11:18 66° SW 22:12:36 45° SSE
Cosmos 1626 1.6 22:15:06 88° NNW 22:15:06 88° NNW 22:18:20 10° N
BREEZE-M DEB (TANK) 4.3 22:19:35 29° ESE 22:19:35 29° ESE 22:23:48 10° ENE
Cosmos 1975 3.4 22:15:33 10° NNW 22:19:21 47° W 22:20:10 40° SW
Cosmos 1818 3.7 22:17:49 40° S 22:19:26 55° ESE 22:24:47 10° NE
SAR-Lupe-3 4.3 22:21:49 74° SE 22:22:04 81° ENE 22:25:36 10° NNW
CZ-2C R/B 4.2 22:19:06 10° N 22:23:32 55° WNW 22:25:31 30° SW
Cosmos 2082 Rocket 4.3 22:25:12 12° ESE 22:26:10 12° E 22:28:17 10° ENE
Cosmos 1833 Rocket 3.2 22:26:31 36° SE 22:27:46 40° ESE 22:32:59 10° NE
BREEZE-M DEB (TANK) 2.4 22:20:42 10° WSW 22:28:24 89° NNW 22:31:01 10° ENE
NOSS 3-3 (A) 3.7 22:34:18 37° SSW 22:36:31 69° SE 22:42:52 10° NE
Spot 4 3.8 22:36:12 47° S 22:37:30 72° WSW 22:42:17 10° NNW
Cosmos 1328 Rocket 4.1 22:39:17 37° SW 22:40:38 52° WNW 22:44:54 10° N
USA 267 3.5 22:34:33 10° ENE 22:40:49 47° SE 22:43:02 35° S
Cosmos 2026 Rocket 4.5 22:37:22 25° SW 22:41:03 55° WNW 22:47:12 10° N
Cosmos 1908 3.9 22:38:18 10° N 22:41:41 38° ENE 22:41:56 38° E
Cosmos 1515 Rocket 3.4 22:41:43 58° SSE 22:42:30 79° E 22:46:50 10° NNE
Cosmos 1140 Rocket 4.0 22:42:32 38° SE 22:43:36 43° ESE 22:48:31 10° NE
Spot 2 4.3 22:44:18 50° S 22:45:27 72° WSW 22:50:20 10° NNW
BREEZE-M DEB (TANK) 4.2 22:43:21 26° SW 22:46:35 65° SE 23:06:56 10° ENE
PSLV R/B 4.0 22:44:01 10° NNE 22:48:26 48° E 22:49:07 44° SE
Cosmos 1842 3.0 22:49:21 74° ESE 22:49:27 75° E 22:53:08 10° NNE
Cosmos 1707 2.7 22:52:03 59° E 22:52:03 59° E 22:55:39 10° NNE
Cosmos 1470 Rocket 4.0 22:47:41 10° NNW 22:52:03 53° W 22:52:57 44° SW
Cosmos 1441 Rocket 4.2 22:48:59 10° N 22:52:16 33° ENE 22:52:40 32° E
NOSS 3-4 (A) 4.2 22:45:53 10° NW 22:52:31 60° NE 22:59:49 11° ESE
NOSS 3-4 (C) 4.2 22:45:59 10° NW 22:52:36 60° NE 22:59:58 11° ESE
Cosmos 1674 2.3 22:52:54 86° NNW 22:52:54 86° NNW 22:56:22 10° N
SL-24 R/B 4.5 22:48:38 10° NNE 22:53:08 59° ESE 22:54:12 47° SSE
Cosmos 1869 Rocket 4.0 22:48:55 10° N 22:53:10 50° ENE 22:54:10 41° ESE
GP-B 4.0 22:52:41 10° NNE 22:56:48 37° E 22:57:43 33° ESE
S3M 4.1 22:50:56 10° N 22:57:20 74° E 23:00:06 36° SSE
Cosmos 1656 4.1 22:52:33 10° NW 22:57:44 46° WSW 22:59:08 38° SSW
BREEZE-M DEB (TANK) 3.8 22:42:12 10° WSW 22:59:06 72° SSE 23:03:19 10° ENE
H-2A R/B 2.4 22:57:11 10° NNE 23:01:32 51° E 23:02:11 47° SE
ALOS 2 2.8 23:01:18 49° SW 23:02:03 56° W 23:06:24 10° NNW
Cosmos 1269 Rocket 4.3 22:59:47 32° SW 23:02:10 63° WNW 23:07:26 10° NNE
Cosmos 1633 Rocket 4.4 22:58:28 10° NNW 23:02:12 27° W 23:03:15 25° WSW
Cosmos 1766 4.1 22:58:48 10° NNW 23:02:14 35° W 23:02:27 34° W
Cosmos 2315 Rocket 4.4 22:56:27 10° N 23:02:38 56° ENE 23:05:36 31° SE
Cosmos 2251 Rocket 4.1 23:04:01 36° SE 23:05:07 40° ESE 23:10:02 10° NE
Cosmos 407 Rocket 4.0 23:04:19 39° SE 23:05:30 45° ESE 23:10:29 10° NE
NOSS 3-3 (C) 3.8 23:02:37 30° SW 23:05:33 85° NW 23:12:04 10° NE
KORONAS-FOTON 3.6 23:06:53 73° WSW 23:07:02 75° W 23:10:44 10° N
Cosmos 1553 Rocket 4.3 23:01:29 10° NNW 23:07:24 54° W 23:09:45 35° SSW
Orbus 7S? 2.9 23:09:01 78° E 23:09:01 78° E 23:11:39 10° NE
Cosmos 2285 Rocket 4.1 23:07:00 39° S 23:09:16 62° ESE 23:15:32 10° NNE
Cosmos 1470 2.7 23:05:46 10° NNW 23:09:26 62° W 23:09:31 62° WSW
USA 59 Rocket 1.6 23:07:55 10° WNW 23:11:16 25° WSW 23:11:16 25° WSW
Cosmos 1763 Rocket 4.3 23:10:24 10° NNW 23:15:34 48° ENE 23:18:23 25° ESE
Cosmos 1933 Rocket 3.8 23:13:04 10° NNW 23:17:20 55° W 23:18:00 49° SW
USA 234 3.3 23:10:58 10° ESE 23:17:31 79° NNE 23:24:05 10° NW
Cosmos 1697 Rocket 2.6 23:16:40 10° NNW 23:22:17 70° WSW 23:24:03 44° S
SL-8 R/B 3.6 23:18:37 10° W 23:23:23 87° SSW 23:28:12 10° E
Cosmos 1300 3.5 23:21:33 10° N 23:24:52 36° ENE 23:25:20 34° E
Meteor 1-13 Rocket 4.3 23:23:15 41° S 23:25:29 89° E 23:31:25 10° NNE
SL-14 R/B 4.2 23:26:28 35° ESE 23:26:49 35° E 23:30:21 10° NNE
Cosmos 1980 Rocket 2.4 23:23:37 10° NNW 23:29:20 70° ENE 23:32:18 29° SE
Cosmos 1607 4.0 23:30:35 36° SSW 23:33:26 80° SE 23:39:57 10° NE
Cosmos 540 Rocket 4.2 23:29:12 10° NNW 23:34:14 49° ENE 23:37:08 24° SE
Cosmos 1655 Rocket 4.0 23:34:16 38° S 23:36:53 86° E 23:43:19 10° N
COSMOS 2406 4.1 23:37:30 31° SE 23:39:12 38° ESE 23:44:29 10° NE
Cosmos 2369 4.0 23:34:31 10° NNW 23:40:13 66° ENE 23:43:37 25° SE
In-Cosmos 22 4.2 23:38:55 40° SSW 23:41:04 80° WNW 23:46:51 10° N
Lacrosse 4 Rocket 3.4 23:40:28 10° WNW 23:42:18 16° W 23:42:18 16° W
Cosmos 1758 3.2 23:39:48 10° N 23:43:38 71° E 23:44:07 61° SE
Cosmos 44 Rocket 3.4 23:39:04 10° NW 23:43:54 56° WSW 23:44:39 50° SSW
Cosmos 1356 Rocket 4.2 23:46:28 35° ESE 23:47:10 38° E 23:51:00 10° NNE
Lacrosse 5 rocket 2.8 23:43:17 10° NW 23:47:11 37° NNE 23:50:55 10° E
Meteor 2-10 Rocket 3.7 23:41:19 10° NNW 23:47:12 88° E 23:49:33 38° SSE
Cosmos 2266 Rocket 4.3 23:46:11 33° SW 23:48:53 57° WNW 23:55:03 10° N
Cosmos 1707 Rocket 3.6 23:51:25 50° SSE 23:52:25 68° E 23:56:51 10° NNE
Meteor 1-15 Rocket 4.3 23:46:59 10° NNW 23:52:35 62° W 23:54:27 40° SSW
Okean 1-7 4.4 23:53:29 25° ESE 23:54:47 30° E 23:58:33 10° NNE
